Location: Asheville, NC
(35.6000°N, 82.5500°W)
Time: 08:54:56
(UTC-05:00)

KAITUO 1B - Pass Details

Date: 11 January 2018
Orbit: 500 x 521 km, 97.5° (Epoch: 18 January)

Event Time Altitude Azimuth Distance (km) Brightness Sun altitude
Rises 06:08:56 0° 25° (NNE) 2,611 ? -18.2°
Reaches altitude 10° 06:11:17 10° 38° (NE) 1,718 ? -17.7°
Maximum altitude 06:14:26 26° 97° (E) 1,017 ? -17.1°
Drops below altitude 10° 06:17:32 10° 155° (SSE) 1,699 ? -16.5°
Sets 06:19:50 0° 168° (SSE) 2,575 ? -16.0°
